Regional Weather Roundup
Issued by NWS Green Bay, WI

Home | Current Version | Previous Version | Graphics & Text | Print | Product List | Glossary Off
Versions: 1 2 3 4 5 6 7 8 9 10 11 12 13 14 15 16 17 18 19 20 21 22 23 24 25 26 27 28 29 30 31 32 33 34 35 36 37 38 39 40 41 42 43 44 45 46 47 48 49 50

900
ASUS43 KGRB 182000
RWRGRB

NORTH-CENTRAL AND NORTHEAST WISCONSIN REGIONAL WEATHER ROUNDUP
NATIONAL WEATHER SERVICE GREEN BAY WI
200 PM CST THU JAN 18 2018

WIZ005-009-010>012-018-019-182100-
NORTH CENTRAL WISCONSIN

CITY           SKY/WX    TMP DP  RH WIND       PRES   REMARKS
IRONWOOD       CLOUDY    32  23  69 W12       29.70F
MANITOWISH WTR NOT AVBL
ARBOR VITAE    NOT AVBL
EAGLE RIVER    CLOUDY    32  22  67 W9        29.68F
LAND O LAKES   NOT AVBL
RHINELANDER    FAIR      34  24  67 W9        29.70F
PHILLIPS       FAIR      34  23  63 SW12      29.71S
ANTIGO         NOT AVBL
TOMAHAWK       NOT AVBL
MERRILL        FAIR      35  22  57 SW7       29.74F
$$

WIZ013-073-182100-
NORTHEAST WISCONSIN

CITY           SKY/WX    TMP DP  RH WIND       PRES   REMARKS
IRON MOUNTAIN  CLOUDY    35  23  61 W10       29.67F
MARINETTE      PTSUNNY   32  21  64 SW8       29.76F
$$

WIZ017-030-035>037-045-182100-
CENTRAL WISCONSIN

CITY           SKY/WX    TMP DP  RH WIND       PRES   REMARKS
MEDFORD        NOT AVBL
WAUSAU         FAIR      33  19  56 W13       29.74F
MOSINEE        SUNNY     34  21  60 SW13      29.77F
MARSHFIELD     FAIR      33  20  58 SW13      29.76F
WISC RAPIDS    FAIR      36  19  50 SW13      29.81F
STEVENS POINT  NOT AVBL
WAUPACA        NOT AVBL
SHAWANO        FAIR      37  21  50 SW9G17    29.76F
CLINTONVILLE   NOT AVBL
WAUTOMA        FAIR      36  20  52 SW12      29.83F
$$

WIZ038-039-048-051-182100-
FOX VALLEY

CITY           SKY/WX    TMP DP  RH WIND       PRES   REMARKS
NWS GREEN BAY  FAIR      31  20  63 SW12      29.80F
APPLETON       MOSUNNY   30  18  59 SW12      29.80F
OSHKOSH        FAIR      31  21  66 SW10G20   29.83F
FOND DU LAC    FAIR      31  19  61 SW16G26   29.84F
$$

WIZ022-050-052-182100-
EAST CENTRAL WISCONSIN

CITY           SKY/WX    TMP DP  RH WIND       PRES   REMARKS
EPHRAIM        NOT AVBL
WASHINGTON ISL NOT AVBL
STURGEON BAY   FAIR      29  20  69 SW16      29.76F
MANITOWOC      FAIR      34  21  59 SW16      29.81F
SHEBOYGAN      FAIR      33  22  63 SW16      29.84F
$$

LMZ563-521-522-541>543-182100-
LAKESHORE

STATION/POSITION TIME  TEMP    WIND        PRES    VSBY  WAVE
                       AIR SEA DIR/SP/G                  HT/PER
                 (UTC) (F)     (DEG/KT/KT) (MB)    (MI)  (FT/S)
SHEBOYGAN LKSHOR 1900   29     220/ 13/ 16 1012.3F
KEWAUNEE LKSHORE 1930   29     210/  8/ 15 1008.9F
NORTHPORT PIER   1951   29     220/  5     1007.5F
SISTER BAY LKSHO 1920   29     210/ 17/ 20   N/A
MENOMINEE LKSHOR 1924   27     350/ 12/ 16 1007.4
$$




USA.gov is the U.S. government's official web portal to all federal, state and local government web resources and services.